Location: ????
(33.1659°N, 35.6604°E)
Time: 06:02:58
(UTC+00:00)

NOAA 11 - Pass Details

Date: 20 September 2019
Orbit: 832 x 850 km, 98.4° (Epoch: 21 October)

Event Time Altitude Azimuth Distance (km) Brightness Sun altitude
Rises 16:27:16 0° 158° (SSE) 3,400 7.0 -11.2°
Reaches altitude 10° 16:29:38 10° 155° (SSE) 2,467 6.3 -11.7°
Maximum altitude 16:35:03 65° 75° (ENE) 930 4.2 -12.8°
Drops below altitude 10° 16:40:29 10° 354° (N) 2,475 6.8 -13.9°
Sets 16:42:52 0° 352° (N) 3,411 7.6 -14.4°
